Location: Góry Miechowskie
(50.3599°N, 20.1803°E)
Time: 22:33:18
(UTC+00:00)

Courier 1B Rocket - Pass Details

Date: 13 September 2024
Orbit: 920 x 1201 km, 28.2° (Epoch: 06 October)

Event Time Altitude Azimuth Distance (km) Brightness Sun altitude
Rises 16:19:47 0° 221° (SW) 3,819 8.8 5.1°
Reaches altitude 10° 16:25:00 10° 189° (S) 2,945 7.7 4.2°
Maximum altitude 16:26:55 11° 173° (S) 2,887 7.4 3.9°
Drops below altitude 10° 16:28:51 10° 158° (SSE) 2,999 7.3 3.6°
Sets 16:34:21 0° 126° (SE) 4,025 7.7 2.7°
